Regional Weather Roundup
Issued by NWS

Home | Current Version | Previous Version | Graphics & Text | Print | Product List | Glossary On
Versions: 1 2 3 4 5 6 7 8 9 10 11 12 13 14 15 16 17 18 19 20 21 22 23 24 25 26 27 28 29 30 31 32 33 34 35 36 37 38 39 40 41 42 43 44 45 46 47 48 49 50
000
ASUS44 KMEG 021700
RWRTN
TENNESSEE HOURLY STATE WEATHER ROUNDUP
NATIONAL WEATHER SERVICE MEMPHIS TN
1200 PM CDT WED SEP 02 2015

TNZ002-004-019-021-049-052-054-088>092-021800-
WEST TENNESSEE

CITY           SKY/WX    TMP DP  RH WIND       PRES   REMARKS
MEMPHIS INTL   MOSUNNY   90  69  50 VRB6      30.09F HX  94
NWS MEMPHIS      N/A     87 N/A N/A MISG        N/A
JACKSON        MOSUNNY   88  72  58 N5        30.10F HX  94
DYERSBURG      SUNNY     88  72  58 E6        30.10F HX  94
UNION CITY     SUNNY     88  70  55 CALM      30.09F HX  92
PARIS          PTSUNNY   88  66  48 VRB3      30.11F HX  90
LEXINGTON      SUNNY     86  68  54 CALM      30.10F
$$

TNZ008-025-027-028-033-062-065-066-021800-
NORTH MIDDLE TENNESSEE

CITY           SKY/WX    TMP DP  RH WIND       PRES   REMARKS
NASHVILLE      PTSUNNY   88  66  48 N5        30.11F HX  90
CLARKSVILLE    MOSUNNY   88  65  46 SE6       30.10F HX  90
COOKEVILLE     SUNNY     88  70  55 CALM      30.13S HX  92
CROSSVILLE     MOSUNNY   84  64  50 VRB3      30.18F
$$

TNZ061-075-076-078-094-096-097-021800-
SOUTH MIDDLE TENNESSEE

CITY           SKY/WX    TMP DP  RH WIND       PRES   REMARKS
FAYETTEVILLE   SUNNY     82  68  61 CALM      30.13F
TULLAHOMA      SUNNY     84  66  54 CALM      30.14F
WINCHESTER     SUNNY     84  70  61 E3        30.13F
MCMINNVILLE    SUNNY     88  72  58 NE3       30.13F HX  94
COLUMBIA       SUNNY     88  72  58 SE6       30.10F HX  94
SHELBYVILLE    PTSUNNY   88  70  55 CALM      30.13F HX  92
$$

TNZ017-018-042-046-047-021800-
NORTHEAST TENNESSEE

CITY           SKY/WX    TMP DP  RH WIND       PRES   REMARKS
TRI CITIES     MOSUNNY   85  66  53 SE5       30.14F
ELIZABETHTON   MOSUNNY   86  64  48 VRB5      30.14F
$$

TNZ012-013-036-069-073-074-021800-
CENTRAL EAST TENNESSEE

CITY           SKY/WX    TMP DP  RH WIND       PRES   REMARKS
KNOXVILLE      PTSUNNY   87  67  51 SW5       30.11F HX  90
OAK RIDGE      SUNNY     87  67  51 VRB3      30.13F HX  90
GATLINBURG       N/A     88  64  45 E6        30.11F
$$

TNZ083-085-099-021800-
SOUTHEAST TENNESSEE

CITY           SKY/WX    TMP DP  RH WIND       PRES   REMARKS
CHATTANOOGA    PTSUNNY   86  68  54 E5        30.11F
$$

SKY/WX REPORTED AS FAIR MEANS FEW OR NO CLOUDS BELOW
12 THOUSAND FEET.



USA.gov is the U.S. government's official web portal to all federal, state and local government web resources and services.